Chapel Hill, NC

10:23 AM EDT on October 22, 2017 (GMT -0400)
Williams

Weather History for KIGX - August, 2014

Change the Weather History Date:

Thursday, August 28, 2014

  Actual Average Record
Temperature  
Mean Temperature 78 °F -  
Max Temperature 91 °F 86 °F 102 °F (1948)
Min Temperature 66 °F 63 °F 50 °F (1969)
Cooling Degree Days 13    
Growing Degree Days 28 (Base 50)    
Moisture  
Dew Point 67 °F    
Average Humidity 72    
Maximum Humidity 90    
Minimum Humidity 50    
Precipitation  
Precipitation 0.00 in - - ()
Sea Level Pressure  
Sea Level Pressure 29.98 in    
Wind  
Wind Speed 2 mph (WNW)    
Max Wind Speed 7 mph    
Max Gust Speed -    
Visibility 10 miles    
Events      
Averages and records for this station are not official NWS values.
T = Trace of Precipitation, MM = Missing Value Source: NWS Daily Summary

Daily Weather History Graph

Daily Weather History Graph

Search for Another Location

Airport or City:

Trip Planner

Search our weather history database for the weather conditions in past years. The results will help you decide how hot, cold, wet, or windy it might be!

Date:

Astronomy

Aug. 28, 2014 Rise Set
Actual Time 6:45 AM EDT 7:49 PM EDT
Civil Twilight 6:18 AM EDT 8:15 PM EDT
Nautical Twilight 5:47 AM EDT 8:46 PM EDT
Astronomical Twilight 5:14 AM EDT 9:19 PM EDT
Moon 9:28 AM EDT (8/28) 9:19 PM EDT (8/28)
Length of Visible Light 13h 57m
Length of Day
13h 04m
Waxing Crescent, 8% of the Moon is Illuminated
Aug 28
Waxing Crescent
Sep 2
First Quarter
Sep 8
Full
Sep 15
Last Quarter
Sep 24
New

Hourly Weather History & Observations

Time (EDT) Temp. Heat Index Dew Point Humidity Pressure Visibility Wind Dir Wind Speed Gust Speed Precip Events Conditions
12:56 AM 66.0 °F - 62.1 °F 87% 29.98 in 10.0 mi Calm Calm - N/A   Clear
1:56 AM 68.0 °F - 62.1 °F 81% 29.96 in 10.0 mi Calm Calm - N/A   Clear
2:56 AM 66.9 °F - 61.0 °F 81% 29.96 in 10.0 mi West 3.5 mph - N/A   Clear
3:56 AM 68.0 °F - 60.1 °F 76% 29.96 in 10.0 mi Calm Calm - N/A   Clear
4:56 AM 66.0 °F - 61.0 °F 84% 29.96 in 10.0 mi Calm Calm - N/A   Clear
5:56 AM 66.0 °F - 61.0 °F 84% 29.96 in 10.0 mi Calm Calm - N/A   Clear
6:56 AM 68.0 °F - 61.0 °F 78% 29.98 in 10.0 mi West 3.5 mph - N/A   Clear
7:56 AM 68.0 °F - 63.0 °F 84% 29.99 in 10.0 mi West 5.8 mph - N/A   Clear
8:56 AM 73.0 °F - 66.0 °F 79% 30.00 in 10.0 mi WNW 6.9 mph - N/A   Clear
9:56 AM 81.0 °F 84.1 °F 69.1 °F 67% 30.00 in 10.0 mi WNW 5.8 mph - N/A   Clear
10:56 AM 86.0 °F 90.7 °F 70.0 °F 59% 30.01 in 10.0 mi Variable 4.6 mph - N/A   Clear
11:56 AM 88.0 °F 92.9 °F 70.0 °F 55% 30.00 in 10.0 mi NNE 6.9 mph - N/A   Clear
12:56 PM 88.0 °F 92.1 °F 69.1 °F 53% 30.00 in 10.0 mi West 3.5 mph - N/A   Partly Cloudy
1:56 PM 90.0 °F 95.4 °F 70.0 °F 52% 29.98 in 10.0 mi NW 6.9 mph - N/A   Clear
2:56 PM 90.0 °F 94.5 °F 69.1 °F 50% 29.96 in 10.0 mi West 4.6 mph - N/A   Scattered Clouds
3:56 PM 90.0 °F 94.5 °F 69.1 °F 50% 29.95 in 10.0 mi Calm Calm - N/A   Overcast
4:56 PM 90.0 °F 94.5 °F 69.1 °F 50% 29.95 in 10.0 mi Variable 3.5 mph - N/A   Partly Cloudy
5:56 PM 89.1 °F 94.1 °F 70.0 °F 53% 29.95 in 10.0 mi Variable 3.5 mph - N/A   Mostly Cloudy
6:56 PM 84.0 °F 89.6 °F 72.0 °F 67% 29.96 in 10.0 mi Calm Calm - N/A   Clear
7:56 PM 80.1 °F 84.2 °F 73.0 °F 79% 29.97 in 9.0 mi Calm Calm - N/A   Clear
8:56 PM 77.0 °F - 73.0 °F 88% 29.99 in 9.0 mi Calm Calm - N/A   Clear
9:56 PM 75.9 °F - 72.0 °F 87% 30.00 in 8.0 mi Calm Calm - N/A   Partly Cloudy
10:56 PM 75.0 °F - 72.0 °F 90% 30.01 in 7.0 mi WNW 3.5 mph - N/A   Clear
11:56 PM 75.0 °F - 72.0 °F 90% 30.01 in 6.0 mi Calm Calm - N/A   Partly Cloudy